Location: Roc des P�zouls
(43.9667°N, 3.5500°E)
Time: 12:38:32
(UTC+00:00)

Okean O Rocket - Pass Details

Date: 14 November 2019
Orbit: 622 x 645 km, 98.2° (Epoch: 15 December)

Event Time Altitude Azimuth Distance (km) Brightness Sun altitude
Rises 04:36:02 0° 24° (NNE) 2,915 5.3 -22.1°
Reaches altitude 10° 04:38:30 10° 36° (NE) 2,001 4.6 -21.7°
Maximum altitude 04:42:15 28° 96° (E) 1,184 3.7 -21.0°
Drops below altitude 10° 04:45:58 10° 155° (SSE) 1,988 4.5 -20.3°
Sets 04:48:24 0° 167° (SSE) 2,890 5.2 -19.9°
